TimeMDT,TemperatureF,Dew PointF,Humidity,Sea Level PressureIn,VisibilityMPH,Wind Direction,Wind SpeedMPH,Gust SpeedMPH,PrecipitationIn,Events,Conditions,WindDirDegrees,DateUTC
12:52 AM,37.9,36.0,93,30.10,4.0,North,25.3,39.1,0.23,Rain,Rain,10,2013-10-04 06:52:00
12:59 AM,37.4,35.6,93,30.06,3.0,North,28.8,39.1,0.03,Rain,Heavy Rain,10,2013-10-04 06:59:00
1:10 AM,37.4,35.6,93,30.06,4.0,NNE,26.5,36.8,0.06,Rain,Rain,20,2013-10-04 07:10:00
1:40 AM,37.4,33.8,87,30.05,3.0,North,32.2,40.3,0.14,Rain,Rain,10,2013-10-04 07:40:00
1:50 AM,37.4,35.6,93,30.06,4.0,North,27.6,38.0,0.18,Rain,Rain,10,2013-10-04 07:50:00
1:52 AM,37.0,35.1,93,30.09,4.0,NNE,26.5,38.0,0.18,Rain,Rain,20,2013-10-04 07:52:00
2:52 AM,37.0,35.1,93,30.07,4.0,NNE,27.6,35.7,0.10,Rain,Rain,20,2013-10-04 08:52:00
3:20 AM,37.4,33.8,87,30.03,2.5,North,27.6,39.1,0.04,Snow,Light Snow,10,2013-10-04 09:20:00
3:33 AM,35.6,33.8,93,30.02,3.0,North,29.9,36.8,0.05,Snow,Light Snow,10,2013-10-04 09:33:00
3:52 AM,36.0,34.0,93,30.06,4.0,North,27.6,38.0,0.07,Snow,Light Snow,360,2013-10-04 09:52:00
4:52 AM,36.0,34.0,93,30.06,3.0,North,24.2,38.0,0.04,Snow,Light Snow,360,2013-10-04 10:52:00
5:06 AM,35.6,33.8,93,30.03,2.0,North,25.3,34.5,0.03,Snow,Light Snow,360,2013-10-04 11:06:00
5:36 AM,35.6,33.8,93,30.03,3.0,North,26.5,36.8,0.08,Snow-Thunderstorm,Light Snow,360,2013-10-04 11:36:00
5:52 AM,34.0,33.1,96,30.09,3.0,NNW,26.5,36.8,0.11,Snow-Thunderstorm,Light Snow,340,2013-10-04 11:52:00
6:01 AM,33.8,32.0,93,30.04,2.0,North,25.3,36.8,0.02,Snow-Thunderstorm,Light Snow,350,2013-10-04 12:01:00
6:03 AM,33.8,32.0,93,30.04,1.8,North,27.6,36.8,0.03,Snow,Light Snow,350,2013-10-04 12:03:00
6:52 AM,33.1,30.9,92,30.11,1.2,NNW,23.0,32.2,0.11,Snow-Thunderstorm,Light Snow,340,2013-10-04 12:52:00
7:09 AM,33.8,30.2,87,30.05,0.8,North,26.5,31.1,0.05,Snow,Light Snow,350,2013-10-04 13:09:00
7:52 AM,33.1,30.9,92,30.13,0.5,NNW,31.1,40.3,0.11,Fog-Snow,Snow,340,2013-10-04 13:52:00
7:59 AM,33.8,30.2,87,30.06,0.2,NNW,33.4,44.9,0.03,Fog-Snow,Heavy Snow,340,2013-10-04 13:59:00
8:38 AM,33.8,30.2,87,30.05,0.5,NNW,34.5,44.9,0.13,Fog-Snow,Snow,340,2013-10-04 14:38:00
8:52 AM,33.1,30.9,92,30.12,0.5,NNW,38.0,47.2,0.13,Fog-Snow,Snow,340,2013-10-04 14:52:00
9:11 AM,33.8,30.2,87,30.04,0.2,NNW,36.8,43.7,0.00,Fog-Snow,Heavy Snow,340,2013-10-04 15:11:00
9:52 AM,33.1,30.9,92,30.10,0.2,North,34.5,50.6,0.07,Fog,Fog,350,2013-10-04 15:52:00
10:32 AM,32.0,30.2,93,30.04,0.2,NNW,35.7,47.2,0.06,Snow-Thunderstorm,Snow,340,2013-10-04 16:32:00
10:47 AM,33.8,30.2,87,30.04,0.2,North,36.8,47.2,0.06,Snow,Snow,350,2013-10-04 16:47:00
10:52 AM,33.1,30.9,92,30.12,0.2,North,35.7,47.2,0.06,Snow,Snow,350,2013-10-04 16:52:00
11:52 AM,32.0,30.9,96,30.10,0.2,North,41.4,48.3,0.06,Snow,Snow,350,2013-10-04 17:52:00
1:52 PM,32.0,30.9,96,30.08,0.2,NNW,38.0,51.8,0.11,Snow,Snow,340,2013-10-04 19:52:00
2:52 PM,32.0,32.0,100,30.08,0.2,NNW,41.4,46.0,0.03,Snow,Snow,340,2013-10-04 20:52:00
3:11 PM,32.0,30.2,93,29.99,0.2,NNW,41.4,51.8,0.06,Snow-Thunderstorm,Snow,340,2013-10-04 21:11:00
3:19 PM,32.0,32.0,100,30.00,0.2,NNW,40.3,51.8,0.06,Snow,Snow,340,2013-10-04 21:19:00
3:49 PM,32.0,30.2,93,29.98,0.2,NNW,43.7,51.8,0.11,Snow-Thunderstorm,Snow,340,2013-10-04 21:49:00
3:52 PM,32.0,30.9,96,30.06,0.2,NNW,43.7,55.2,0.11,Snow-Thunderstorm,Snow,340,2013-10-04 21:52:00